Angleton, TX

8:54 PM CDT on April 23, 2018 (GMT -0500)
Brazoria County

Weather History for KLBX - March, 2014

Change the Weather History Date:

Monday, March 31, 2014

  Actual Average Record
Temperature  
Mean Temperature 64 °F -  
Max Temperature 75 °F 72 °F 86 °F (2016)
Min Temperature 55 °F 58 °F 41 °F (2003)
Degree Days  
Heating Degree Days 1    
Growing Degree Days 14 (Base 50)    
Moisture  
Dew Point 61 °F    
Average Humidity 79    
Maximum Humidity 93    
Minimum Humidity 64    
Precipitation  
Precipitation 0.00 in - - ()
Sea Level Pressure  
Sea Level Pressure 30.01 in    
Wind  
Wind Speed 11 mph (SSE)    
Max Wind Speed 23 mph    
Max Gust Speed 28 mph    
Visibility 10 miles    
Events      
Averages and records for this station are not official NWS values.
T = Trace of Precipitation, MM = Missing Value Source: NWS Daily Summary

Daily Weather History Graph

Daily Weather History Graph

Search for Another Location

Airport or City:

Astronomy

Mar. 31, 2014 Rise Set
Actual Time 7:12 AM CDT 7:39 PM CDT
Civil Twilight 6:48 AM CDT 8:03 PM CDT
Nautical Twilight 6:21 AM CDT 8:31 PM CDT
Astronomical Twilight 5:52 AM CDT 8:59 PM CDT
Moon 7:41 AM CDT (3/31) 8:51 PM CDT (3/31)
Length of Visible Light 13h 14m
Length of Day
12h 26m
New Moon, 1% of the Moon is Illuminated
Mar 31
New Moon
Apr 7
First Quarter
Apr 15
Full
Apr 22
Last Quarter
Apr 29
New

Hourly Weather History & Observations

Time (CDT) Temp. Dew Point Humidity Pressure Visibility Wind Dir Wind Speed Gust Speed Precip Events Conditions
12:53 AM 57.0 °F 54.0 °F 89% 30.07 in 10.0 mi SE 5.8 mph - N/A   Clear
1:53 AM 55.0 °F 53.1 °F 93% 30.07 in 10.0 mi SE 4.6 mph - N/A   Clear
2:53 AM 57.9 °F 55.0 °F 90% 30.04 in 10.0 mi SE 4.6 mph - N/A   Clear
3:53 AM 59.0 °F 55.9 °F 90% 30.01 in 10.0 mi SE 6.9 mph - N/A   Clear
4:53 AM 60.1 °F 57.0 °F 90% 30.01 in 10.0 mi SSE 6.9 mph - N/A   Partly Cloudy
5:42 AM 59.0 °F 57.0 °F 93% 30.01 in 10.0 mi South 4.6 mph - N/A   Mostly Cloudy
5:53 AM 60.1 °F 57.9 °F 93% 30.00 in 10.0 mi SSE 6.9 mph - N/A   Mostly Cloudy
6:10 AM 61.0 °F 57.9 °F 90% 30.00 in 10.0 mi SSE 9.2 mph - N/A   Partly Cloudy
6:53 AM 61.0 °F 57.9 °F 90% 29.99 in 10.0 mi SE 9.2 mph - N/A   Clear
7:53 AM 61.0 °F 59.0 °F 93% 30.01 in 10.0 mi SSE 5.8 mph - N/A   Clear
8:53 AM 66.9 °F 61.0 °F 81% 30.02 in 10.0 mi SSE 12.7 mph - N/A   Clear
9:53 AM 70.0 °F 60.1 °F 71% 30.03 in 10.0 mi SSE 19.6 mph - N/A   Scattered Clouds
10:04 AM 69.1 °F 60.1 °F 73% 30.03 in 10.0 mi SSE 23.0 mph 26.5 mph N/A   Mostly Cloudy
10:53 AM 73.0 °F 61.0 °F 66% 30.04 in 10.0 mi SSE 16.1 mph 26.5 mph N/A   Mostly Cloudy
11:48 AM 73.4 °F 60.8 °F 65% 30.05 in 10.0 mi South 18.4 mph - N/A   Scattered Clouds
11:53 AM 73.9 °F 61.0 °F 64% 30.04 in 10.0 mi South 20.7 mph 25.3 mph N/A   Scattered Clouds
12:08 PM 73.9 °F 61.0 °F 64% 30.04 in 10.0 mi South 19.6 mph - N/A   Mostly Cloudy
12:53 PM 73.0 °F 60.1 °F 64% 30.03 in 10.0 mi South 20.7 mph 27.6 mph N/A   Overcast
1:42 PM 73.9 °F 61.0 °F 64% 30.02 in 10.0 mi South 20.7 mph 26.5 mph N/A   Mostly Cloudy
1:53 PM 73.0 °F 62.1 °F 68% 30.02 in 10.0 mi South 20.7 mph - N/A   Overcast
2:06 PM 73.9 °F 61.0 °F 64% 30.01 in 10.0 mi SSE 17.3 mph - N/A   Overcast
2:17 PM 73.0 °F 61.0 °F 66% 30.01 in 10.0 mi South 17.3 mph - N/A   Overcast
2:26 PM 73.9 °F 61.0 °F 64% 30.01 in 10.0 mi South 18.4 mph 27.6 mph N/A   Mostly Cloudy
2:53 PM 73.9 °F 61.0 °F 64% 30.00 in 10.0 mi South 18.4 mph - N/A   Mostly Cloudy
3:53 PM 73.9 °F 62.1 °F 66% 29.97 in 10.0 mi South 18.4 mph - N/A   Mostly Cloudy
4:28 PM 73.0 °F 63.0 °F 71% 29.97 in 10.0 mi SSE 15.0 mph 23.0 mph N/A   Overcast
4:53 PM 72.0 °F 63.0 °F 73% 29.97 in 10.0 mi SSE 12.7 mph - N/A   Overcast
5:53 PM 71.1 °F 63.0 °F 75% 29.96 in 10.0 mi SSE 11.5 mph - N/A   Overcast
6:53 PM 70.0 °F 63.0 °F 78% 29.96 in 10.0 mi SSE 10.4 mph - N/A   Overcast
7:53 PM 69.1 °F 64.0 °F 84% 29.97 in 10.0 mi ESE 9.2 mph - N/A   Overcast
8:53 PM 68.0 °F 64.0 °F 87% 29.98 in 10.0 mi SE 6.9 mph - N/A   Overcast
9:27 PM 66.9 °F 64.0 °F 90% 29.99 in 10.0 mi SE 8.1 mph - N/A   Overcast
9:53 PM 66.9 °F 64.0 °F 90% 30.00 in 10.0 mi SE 8.1 mph - N/A   Overcast
10:17 PM 68.0 °F 64.0 °F 87% 29.99 in 10.0 mi SE 10.4 mph - N/A   Overcast
10:53 PM 66.9 °F 64.9 °F 93% 29.99 in 10.0 mi SE 10.4 mph - N/A   Overcast
11:13 PM 68.0 °F 64.9 °F 90% 29.98 in 10.0 mi SE 11.5 mph - N/A   Overcast
11:53 PM 68.0 °F 64.9 °F 90% 29.99 in 10.0 mi SE 12.7 mph - N/A   Overcast